Salt Lake City, UT

8:43 AM MDT on June 25, 2017 (GMT -0600)
Salt Lake City International

Weather History for KSLC - February, 2014

Change the Weather History Date:

Wednesday, February 5, 2014

  Actual Average Record
Temperature  
Mean Temperature 26 °F 31 °F  
Max Temperature 33 °F 40 °F 65 °F (2015)
Min Temperature 19 °F 23 °F -8 °F (1989)
Degree Days  
Heating Degree Days 39 34  
Month to date heating degree days 177 170  
Since 1 July heating degree days 3531 3564  
Cooling Degree Days 0 0  
Month to date cooling degree days 0 0  
Year to date cooling degree days 0 0  
Moisture  
Dew Point 15 °F    
Average Humidity 63    
Maximum Humidity 84    
Minimum Humidity 41    
Precipitation  
Precipitation 0.00 in 0.04 in 0.66 in (1884)
Month to date precipitation 0.10 0.20  
Year to date precipitation 1.30 1.45  
Snow  
Snow 0.00 in 0.40 in 7.00 in (1922)
Month to date snowfall 1.7 2.0  
Since 1 July snowfall 34.5 36.7  
Snow Depth 0.00 in    
Sea Level Pressure  
Sea Level Pressure 30.14 in    
Wind  
Wind Speed 9 mph (South)    
Max Wind Speed 16 mph    
Max Gust Speed 19 mph    
Visibility 10 miles    
Events      
T = Trace of Precipitation, MM = Missing Value Source: NWS Daily Summary

Daily Weather History Graph

Daily Weather History Graph

Search for Another Location

Airport or City:

Trip Planner

Search our weather history database for the weather conditions in past years. The results will help you decide how hot, cold, wet, or windy it might be!

Date:

Astronomy

Feb. 05, 2014 Rise Set
Actual Time 7:33 AM MST 5:50 PM MST
Civil Twilight 7:05 AM MST 6:19 PM MST
Nautical Twilight 6:32 AM MST 6:51 PM MST
Astronomical Twilight 6:00 AM MST 7:23 PM MST
Moon 10:48 AM MST (2/5) No Moon Set
Length of Visible Light 11h 14m
Length of Day
10h 16m
Waxing Crescent, 40% of the Moon is Illuminated
Feb 5
Waxing Crescent
Feb 6
First Quarter
Feb 14
Full
Feb 22
Last Quarter
Mar 1
New

Hourly Weather History & Observations

Time (MST) Temp. Windchill Dew Point Humidity Pressure Visibility Wind Dir Wind Speed Gust Speed Precip Events Conditions
12:53 AM 21.9 °F 15.7 °F 17.1 °F 82% 30.18 in 10.0 mi South 4.6 mph - N/A   Scattered Clouds
1:53 AM 21.0 °F 12.4 °F 16.0 °F 81% 30.18 in 10.0 mi SSE 6.9 mph - N/A   Partly Cloudy
2:53 AM 19.9 °F 12.1 °F 15.1 °F 81% 30.19 in 10.0 mi ESE 5.8 mph - N/A   Partly Cloudy
3:53 AM 19.9 °F 10.1 °F 10.0 °F 65% 30.18 in 10.0 mi SSE 8.1 mph - N/A   Scattered Clouds
4:53 AM 19.9 °F 13.4 °F 10.0 °F 65% 30.19 in 10.0 mi SSE 4.6 mph - N/A   Mostly Cloudy
5:53 AM 19.0 °F 9.0 °F 8.1 °F 62% 30.19 in 10.0 mi SSE 8.1 mph - N/A   Partly Cloudy
6:53 AM 19.9 °F 7.9 °F 12.9 °F 74% 30.17 in 10.0 mi SE 11.5 mph - N/A   Partly Cloudy
7:53 AM 21.0 °F 9.9 °F 12.9 °F 71% 30.17 in 10.0 mi SE 10.4 mph - N/A   Scattered Clouds
8:53 AM 23.0 °F 10.6 °F 12.9 °F 65% 30.18 in 10.0 mi SE 13.8 mph - N/A   Scattered Clouds
9:53 AM 26.1 °F 14.5 °F 12.0 °F 55% 30.17 in 10.0 mi SSE 13.8 mph - N/A   Mostly Cloudy
10:53 AM 28.9 °F 23.9 °F 12.0 °F 49% 30.17 in 10.0 mi Variable 4.6 mph - N/A   Mostly Cloudy
11:53 AM 28.9 °F 21.1 °F 15.1 °F 56% 30.16 in 10.0 mi West 8.1 mph - N/A   Mostly Cloudy
12:53 PM 30.9 °F 25.2 °F 12.9 °F 47% 30.12 in 10.0 mi West 5.8 mph - N/A   Mostly Cloudy
1:53 PM 33.1 °F 26.9 °F 12.0 °F 42% 30.09 in 10.0 mi Variable 6.9 mph - N/A   Scattered Clouds
2:53 PM 32.0 °F 24.2 °F 12.9 °F 45% 30.08 in 10.0 mi NW 9.2 mph - N/A   Scattered Clouds
3:53 PM 30.9 °F 22.2 °F 15.1 °F 52% 30.08 in 10.0 mi North 10.4 mph - N/A   Scattered Clouds
4:53 PM 30.0 °F 21.7 °F 14.0 °F 51% 30.08 in 10.0 mi NNW 9.2 mph - N/A   Scattered Clouds
5:53 PM 27.0 °F 18.0 °F 17.1 °F 66% 30.10 in 10.0 mi NW 9.2 mph - N/A   Scattered Clouds
6:53 PM 24.1 °F - 19.0 °F 81% 30.10 in 10.0 mi Calm Calm - N/A   Mostly Cloudy
7:53 PM 24.1 °F 18.2 °F 19.9 °F 84% 30.10 in 10.0 mi WNW 4.6 mph - N/A   Mostly Cloudy
8:53 PM 23.0 °F 12.4 °F 21.0 °F 92% 30.10 in 10.0 mi NNW 10.4 mph - N/A   Mostly Cloudy
9:53 PM 23.0 °F 15.8 °F 21.0 °F 92% 30.09 in 10.0 mi North 5.8 mph - N/A   Mostly Cloudy
10:53 PM 21.9 °F - 19.0 °F 89% 30.09 in 10.0 mi Calm Calm - N/A   Mostly Cloudy
11:53 PM 21.0 °F - 19.0 °F 92% 30.09 in 10.0 mi Calm Calm - N/A   Mostly Cloudy